Time,TemperatureF,DewpointF,PressureIn,WindDirection,WindDirectionDegrees,WindSpeedMPH,WindSpeedGustMPH,Humidity,HourlyPrecipIn,Conditions,Clouds,dailyrainin,SoftwareType,DateUTC
2013-04-11 00:04:00,38.1,24.2,30.10,ENE,72,2.0,3.0,57,0.00,,,0.00,HR-IXPWINDi_r2_v1.2.,2013-04-11 06:04:00,
2013-04-11 00:09:00,38.0,24.1,30.10,East,92,3.0,4.0,57,0.00,,,0.00,HR-IXPWINDi_r2_v1.2.,2013-04-11 06:09:00,
2013-04-11 00:14:00,37.9,24.0,30.09,ENE,69,5.0,6.0,57,0.00,,,0.00,HR-IXPWINDi_r2_v1.2.,2013-04-11 06:14:00,
2013-04-11 00:20:00,37.7,24.2,30.09,ENE,68,2.0,6.0,58,0.00,,,0.00,HR-IXPWINDi_r2_v1.2.,2013-04-11 06:20:00,
2013-04-11 00:25:00,37.6,24.2,30.09,ENE,72,1.0,5.0,58,0.00,,,0.00,HR-IXPWINDi_r2_v1.2.,2013-04-11 06:25:00,
2013-04-11 00:30:00,37.4,24.0,30.09,ESE,105,2.0,4.0,58,0.00,,,0.00,HR-IXPWINDi_r2_v1.2.,2013-04-11 06:30:00,
2013-04-11 00:35:00,37.3,23.9,30.09,ENE,77,2.0,4.0,58,0.00,,,0.00,HR-IXPWINDi_r2_v1.2.,2013-04-11 06:35:00,
2013-04-11 00:41:00,37.1,24.1,30.09,ENE,60,1.0,4.0,59,0.00,,,0.00,HR-IXPWINDi_r2_v1.2.,2013-04-11 06:41:00,
2013-04-11 00:46:00,36.9,23.9,30.09,East,82,1.0,4.0,59,0.00,,,0.00,HR-IXPWINDi_r2_v1.2.,2013-04-11 06:46:00,
2013-04-11 00:51:00,36.7,23.7,30.09,NE,53,2.0,3.0,59,0.00,,,0.00,HR-IXPWINDi_r2_v1.2.,2013-04-11 06:51:00,
2013-04-11 00:57:00,36.6,23.6,30.09,East,101,1.0,2.0,59,0.00,,,0.00,HR-IXPWINDi_r2_v1.2.,2013-04-11 06:57:00,
2013-04-11 01:02:00,36.4,23.8,30.09,ENE,72,2.0,2.0,60,0.00,,,0.00,HR-IXPWINDi_r2_v1.2.,2013-04-11 07:02:00,
2013-04-11 01:07:00,36.4,23.8,30.08,ENE,63,1.0,2.0,60,0.00,,,0.00,HR-IXPWINDi_r2_v1.2.,2013-04-11 07:07:00,
2013-04-11 01:13:00,36.1,23.6,30.08,ENE,58,1.0,2.0,60,0.00,,,0.00,HR-IXPWINDi_r2_v1.2.,2013-04-11 07:13:00,
2013-04-11 01:18:00,35.9,23.8,30.09,ENE,58,2.0,2.0,61,0.00,,,0.00,HR-IXPWINDi_r2_v1.2.,2013-04-11 07:18:00,
2013-04-11 01:23:00,35.7,23.6,30.08,NE,55,1.0,2.0,61,0.00,,,0.00,HR-IXPWINDi_r2_v1.2.,2013-04-11 07:23:00,
2013-04-11 01:28:00,35.5,23.4,30.08,ENE,63,0.0,2.0,61,0.00,,,0.00,HR-IXPWINDi_r2_v1.2.,2013-04-11 07:28:00,
2013-04-11 01:33:00,35.1,23.4,30.08,ENE,63,0.0,1.0,62,0.00,,,0.00,HR-IXPWINDi_r2_v1.2.,2013-04-11 07:33:00,
2013-04-11 01:38:00,34.9,23.6,30.08,ENE,63,0.0,0.0,63,0.00,,,0.00,HR-IXPWINDi_r2_v1.2.,2013-04-11 07:38:00,
2013-04-11 01:44:00,34.7,23.4,30.08,ENE,62,0.0,0.0,63,0.00,,,0.00,HR-IXPWINDi_r2_v1.2.,2013-04-11 07:44:00,
2013-04-11 01:49:00,34.7,23.4,30.09,ENE,63,0.0,1.0,63,0.00,,,0.00,HR-IXPWINDi_r2_v1.2.,2013-04-11 07:49:00,
2013-04-11 01:54:00,34.8,23.5,30.08,ENE,63,0.0,1.0,63,0.00,,,0.00,HR-IXPWINDi_r2_v1.2.,2013-04-11 07:54:00,
2013-04-11 01:59:00,34.8,23.5,30.08,ENE,62,0.0,1.0,63,0.00,,,0.00,HR-IXPWINDi_r2_v1.2.,2013-04-11 07:59:00,
2013-04-11 02:04:00,34.8,23.5,30.07,ENE,63,0.0,1.0,63,0.00,,,0.00,HR-IXPWINDi_r2_v1.2.,2013-04-11 08:04:00,
2013-04-11 02:09:00,34.9,23.6,30.07,ENE,63,0.0,1.0,63,0.00,,,0.00,HR-IXPWINDi_r2_v1.2.,2013-04-11 08:09:00,
2013-04-11 02:15:00,35.2,23.9,30.07,East,91,1.0,2.0,63,0.00,,,0.00,HR-IXPWINDi_r2_v1.2.,2013-04-11 08:15:00,
2013-04-11 02:20:00,35.5,24.1,30.07,ESE,115,0.0,2.0,63,0.00,,,0.00,HR-IXPWINDi_r2_v1.2.,2013-04-11 08:20:00,
2013-04-11 02:25:00,35.6,23.9,30.07,ESE,115,0.0,2.0,62,0.00,,,0.00,HR-IXPWINDi_r2_v1.2.,2013-04-11 08:25:00,
2013-04-11 02:30:00,35.7,24.0,30.06,ESE,115,0.0,1.0,62,0.00,,,0.00,HR-IXPWINDi_r2_v1.2.,2013-04-11 08:30:00,
2013-04-11 02:35:00,35.8,24.0,30.06,ESE,117,0.0,1.0,62,0.00,,,0.00,HR-IXPWINDi_r2_v1.2.,2013-04-11 08:35:00,
2013-04-11 02:40:00,35.7,24.0,30.06,ESE,117,0.0,1.0,62,0.00,,,0.00,HR-IXPWINDi_r2_v1.2.,2013-04-11 08:40:00,
2013-04-11 02:46:00,35.6,23.9,30.06,ESE,117,0.0,1.0,62,0.00,,,0.00,HR-IXPWINDi_r2_v1.2.,2013-04-11 08:46:00,
2013-04-11 02:51:00,35.5,23.8,30.05,ESE,117,0.0,1.0,62,0.00,,,0.00,HR-IXPWINDi_r2_v1.2.,2013-04-11 08:51:00,
2013-04-11 02:56:00,35.5,24.1,30.05,ESE,117,1.0,1.0,63,0.00,,,0.00,HR-IXPWINDi_r2_v1.2.,2013-04-11 08:56:00,
2013-04-11 03:01:00,35.8,24.0,30.05,ESE,121,0.0,1.0,62,0.00,,,0.00,HR-IXPWINDi_r2_v1.2.,2013-04-11 09:01:00,
2013-04-11 03:06:00,35.9,24.1,30.04,ESE,120,1.0,1.0,62,0.00,,,0.00,HR-IXPWINDi_r2_v1.2.,2013-04-11 09:06:00,
2013-04-11 03:11:00,36.0,24.2,30.04,East,101,1.0,2.0,62,0.00,,,0.00,HR-IXPWINDi_r2_v1.2.,2013-04-11 09:11:00,
2013-04-11 03:16:00,36.1,24.3,30.03,SE,127,2.0,3.0,62,0.00,,,0.00,HR-IXPWINDi_r2_v1.2.,2013-04-11 09:16:00,
2013-04-11 03:21:00,36.2,24.4,30.03,ESE,111,0.0,3.0,62,0.00,,,0.00,HR-IXPWINDi_r2_v1.2.,2013-04-11 09:21:00,
2013-04-11 03:26:00,36.3,24.5,30.04,ESE,112,0.0,2.0,62,0.00,,,0.00,HR-IXPWINDi_r2_v1.2.,2013-04-11 09:26:00,
2013-04-11 03:31:00,36.2,24.4,30.03,ESE,111,1.0,1.0,62,0.00,,,0.00,HR-IXPWINDi_r2_v1.2.,2013-04-11 09:31:00,
2013-04-11 03:37:00,36.4,24.6,30.03,ENE,69,0.0,2.0,62,0.00,,,0.00,HR-IXPWINDi_r2_v1.2.,2013-04-11 09:37:00,
2013-04-11 03:42:00,36.5,24.7,30.03,ENE,68,0.0,2.0,62,0.00,,,0.00,HR-IXPWINDi_r2_v1.2.,2013-04-11 09:42:00,
2013-04-11 03:47:00,36.5,24.7,30.03,SSW,204,0.0,1.0,62,0.00,,,0.00,HR-IXPWINDi_r2_v1.2.,2013-04-11 09:47:00,
2013-04-11 03:52:00,36.4,25.4,30.03,SW,229,1.0,1.0,64,0.00,,,0.00,HR-IXPWINDi_r2_v1.2.,2013-04-11 09:52:00,
2013-04-11 03:58:00,36.1,25.5,30.03,WNW,292,2.0,2.0,65,0.00,,,0.00,HR-IXPWINDi_r2_v1.2.,2013-04-11 09:58:00,
2013-04-11 04:03:00,35.7,25.4,30.03,WNW,285,1.0,2.0,66,0.00,,,0.00,HR-IXPWINDi_r2_v1.2.,2013-04-11 10:03:00,
2013-04-11 04:08:00,35.6,25.4,30.03,WNW,285,1.0,2.0,66,0.00,,,0.00,HR-IXPWINDi_r2_v1.2.,2013-04-11 10:08:00,
2013-04-11 04:13:00,35.3,24.7,30.02,West,274,1.0,2.0,65,0.00,,,0.00,HR-IXPWINDi_r2_v1.2.,2013-04-11 10:13:00,
2013-04-11 04:18:00,35.1,24.5,30.02,West,271,0.0,2.0,65,0.00,,,0.00,HR-IXPWINDi_r2_v1.2.,2013-04-11 10:18:00,
2013-04-11 04:23:00,35.1,24.9,30.02,West,267,2.0,2.0,66,0.00,,,0.00,HR-IXPWINDi_r2_v1.2.,2013-04-11 10:23:00,
2013-04-11 04:28:00,35.1,24.5,30.02,West,281,3.0,3.0,65,0.00,,,0.00,HR-IXPWINDi_r2_v1.2.,2013-04-11 10:28:00,
2013-04-11 04:34:00,34.9,24.3,30.02,West,277,2.0,3.0,65,0.00,,,0.00,HR-IXPWINDi_r2_v1.2.,2013-04-11 10:34:00,
2013-04-11 04:39:00,35.0,24.4,30.02,WNW,285,3.0,4.0,65,0.00,,,0.00,HR-IXPWINDi_r2_v1.2.,2013-04-11 10:39:00,
2013-04-11 04:44:00,35.1,24.5,30.02,West,281,1.0,4.0,65,0.00,,,0.00,HR-IXPWINDi_r2_v1.2.,2013-04-11 10:44:00,
2013-04-11 04:49:00,35.1,24.5,30.02,WNW,287,3.0,4.0,65,0.00,,,0.00,HR-IXPWINDi_r2_v1.2.,2013-04-11 10:49:00,
2013-04-11 04:55:00,35.1,24.9,30.02,WNW,298,1.0,3.0,66,0.00,,,0.00,HR-IXPWINDi_r2_v1.2.,2013-04-11 10:55:00,
2013-04-11 05:00:00,35.1,24.5,30.01,West,281,1.0,3.0,65,0.00,,,0.00,HR-IXPWINDi_r2_v1.2.,2013-04-11 11:00:00,
2013-04-11 05:05:00,35.1,24.9,30.02,West,281,1.0,1.0,66,0.00,,,0.00,HR-IXPWINDi_r2_v1.2.,2013-04-11 11:05:00,
2013-04-11 05:11:00,35.1,24.9,30.01,West,281,0.0,2.0,66,0.00,,,0.00,HR-IXPWINDi_r2_v1.2.,2013-04-11 11:11:00,
2013-04-11 05:16:00,35.1,24.9,30.01,West,281,0.0,2.0,66,0.00,,,0.00,HR-IXPWINDi_r2_v1.2.,2013-04-11 11:16:00,
2013-04-11 05:21:00,35.1,24.9,30.01,West,281,1.0,1.0,66,0.00,,,0.00,HR-IXPWINDi_r2_v1.2.,2013-04-11 11:21:00,
2013-04-11 05:26:00,35.1,25.2,30.01,WSW,256,1.0,2.0,67,0.00,,,0.00,HR-IXPWINDi_r2_v1.2.,2013-04-11 11:26:00,
2013-04-11 05:31:00,35.1,24.9,30.01,WSW,256,0.0,2.0,66,0.00,,,0.00,HR-IXPWINDi_r2_v1.2.,2013-04-11 11:31:00,
2013-04-11 05:36:00,35.0,25.1,30.01,WSW,256,0.0,1.0,67,0.00,,,0.00,HR-IXPWINDi_r2_v1.2.,2013-04-11 11:36:00,
2013-04-11 05:56:00,34.8,24.6,30.01,WNW,290,0.0,2.0,66,0.00,,,0.00,HR-IXPWINDi_r2_v1.2.,2013-04-11 11:56:00,
2013-04-11 06:01:00,34.8,25.0,30.02,WNW,290,1.0,2.0,67,0.00,,,0.00,HR-IXPWINDi_r2_v1.2.,2013-04-11 12:01:00,
2013-04-11 06:06:00,34.7,24.9,30.02,WNW,290,0.0,1.0,67,0.00,,,0.00,HR-IXPWINDi_r2_v1.2.,2013-04-11 12:06:00,
2013-04-11 06:11:00,34.6,25.1,30.02,WNW,290,0.0,1.0,68,0.00,,,0.00,HR-IXPWINDi_r2_v1.2.,2013-04-11 12:11:00,
2013-04-11 06:33:00,34.3,25.2,30.02,West,278,0.0,1.0,69,0.00,,,0.00,HR-IXPWINDi_r2_v1.2.,2013-04-11 12:33:00,
2013-04-11 06:38:00,34.3,25.2,30.02,West,278,0.0,1.0,69,0.00,,,0.00,HR-IXPWINDi_r2_v1.2.,2013-04-11 12:38:00,
2013-04-11 06:43:00,34.3,25.2,30.02,West,278,0.0,1.0,69,0.00,,,0.00,HR-IXPWINDi_r2_v1.2.,2013-04-11 12:43:00,
2013-04-11 06:48:00,34.6,25.5,30.02,WSW,252,1.0,1.0,69,0.00,,,0.00,HR-IXPWINDi_r2_v1.2.,2013-04-11 12:48:00,
2013-04-11 06:54:00,35.0,25.5,30.02,WNW,283,1.0,2.0,68,0.00,,,0.00,HR-IXPWINDi_r2_v1.2.,2013-04-11 12:54:00,
2013-04-11 06:59:00,35.2,25.7,30.02,West,278,0.0,2.0,68,0.00,,,0.00,HR-IXPWINDi_r2_v1.2.,2013-04-11 12:59:00,
2013-04-11 07:04:00,35.5,25.6,30.02,West,278,0.0,1.0,67,0.00,,,0.00,HR-IXPWINDi_r2_v1.2.,2013-04-11 13:04:00,
2013-04-11 07:10:00,35.8,25.9,30.02,West,280,1.0,1.0,67,0.00,,,0.00,HR-IXPWINDi_r2_v1.2.,2013-04-11 13:10:00,
2013-04-11 07:15:00,36.0,26.1,30.02,West,280,0.0,1.0,67,0.00,,,0.00,HR-IXPWINDi_r2_v1.2.,2013-04-11 13:15:00,
2013-04-11 07:20:00,36.2,25.9,30.03,North,6,0.0,1.0,66,0.00,,,0.00,HR-IXPWINDi_r2_v1.2.,2013-04-11 13:20:00,
2013-04-11 07:25:00,36.3,25.7,30.03,North,5,1.0,1.0,65,0.00,,,0.00,HR-IXPWINDi_r2_v1.2.,2013-04-11 13:25:00,
2013-04-11 07:30:00,36.7,26.0,30.03,WNW,300,2.0,2.0,65,0.00,,,0.00,HR-IXPWINDi_r2_v1.2.,2013-04-11 13:30:00,
2013-04-11 07:36:00,36.9,25.8,30.03,WNW,300,0.0,2.0,64,0.00,,,0.00,HR-IXPWINDi_r2_v1.2.,2013-04-11 13:36:00,
2013-04-11 07:41:00,37.1,26.0,30.03,WNW,288,1.0,2.0,64,0.00,,,0.00,HR-IXPWINDi_r2_v1.2.,2013-04-11 13:41:00,
2013-04-11 07:46:00,37.3,25.8,30.03,WNW,291,2.0,2.0,63,0.00,,,0.00,HR-IXPWINDi_r2_v1.2.,2013-04-11 13:46:00,
2013-04-11 07:51:00,37.6,25.7,30.03,North,9,0.0,2.0,62,0.00,,,0.00,HR-IXPWINDi_r2_v1.2.,2013-04-11 13:51:00,
2013-04-11 07:57:00,37.9,25.6,30.04,North,10,0.0,2.0,61,0.00,,,0.00,HR-IXPWINDi_r2_v1.2.,2013-04-11 13:57:00,
2013-04-11 08:02:00,38.0,25.7,30.04,NW,312,0.0,1.0,61,0.00,,,0.00,HR-IXPWINDi_r2_v1.2.,2013-04-11 14:02:00,
2013-04-11 08:07:00,38.1,25.8,30.04,West,280,0.0,2.0,61,0.00,,,0.00,HR-IXPWINDi_r2_v1.2.,2013-04-11 14:07:00,
2013-04-11 08:12:00,38.3,25.6,30.04,West,280,0.0,2.0,60,0.00,,,0.00,HR-IXPWINDi_r2_v1.2.,2013-04-11 14:12:00,
2013-04-11 08:17:00,38.5,25.4,30.04,WSW,248,0.0,1.0,59,0.00,,,0.00,HR-IXPWINDi_r2_v1.2.,2013-04-11 14:17:00,
2013-04-11 08:22:00,38.7,25.6,30.04,WSW,247,0.0,1.0,59,0.00,,,0.00,HR-IXPWINDi_r2_v1.2.,2013-04-11 14:22:00,
2013-04-11 08:28:00,38.8,25.7,30.04,West,271,1.0,2.0,59,0.00,,,0.00,HR-IXPWINDi_r2_v1.2.,2013-04-11 14:28:00,
2013-04-11 08:33:00,38.9,25.4,30.04,WNW,284,2.0,4.0,58,0.00,,,0.00,HR-IXPWINDi_r2_v1.2.,2013-04-11 14:33:00,
2013-04-11 08:38:00,38.7,25.6,30.04,WNW,300,1.0,4.0,59,0.00,,,0.00,HR-IXPWINDi_r2_v1.2.,2013-04-11 14:38:00,
2013-04-11 08:43:00,38.8,25.7,30.04,West,281,2.0,4.0,59,0.00,,,0.00,HR-IXPWINDi_r2_v1.2.,2013-04-11 14:43:00,
2013-04-11 08:48:00,39.1,26.0,30.04,WSW,245,1.0,3.0,59,0.00,,,0.00,HR-IXPWINDi_r2_v1.2.,2013-04-11 14:48:00,
2013-04-11 08:53:00,39.5,25.9,30.04,SW,219,0.0,3.0,58,0.00,,,0.00,HR-IXPWINDi_r2_v1.2.,2013-04-11 14:53:00,
2013-04-11 08:58:00,39.7,25.7,30.04,West,270,1.0,3.0,57,0.00,,,0.00,HR-IXPWINDi_r2_v1.2.,2013-04-11 14:58:00,
2013-04-11 09:03:00,39.8,25.8,30.04,West,281,3.0,4.0,57,0.00,,,0.00,HR-IXPWINDi_r2_v1.2.,2013-04-11 15:03:00,
2013-04-11 09:08:00,39.7,25.7,30.05,NW,307,6.0,7.0,57,0.00,,,0.00,HR-IXPWINDi_r2_v1.2.,2013-04-11 15:08:00,
2013-04-11 09:13:00,39.6,26.8,30.05,NW,313,3.0,8.0,60,0.00,,,0.00,HR-IXPWINDi_r2_v1.2.,2013-04-11 15:13:00,
2013-04-11 09:18:00,39.4,27.1,30.05,West,271,2.0,8.0,61,0.00,,,0.00,HR-IXPWINDi_r2_v1.2.,2013-04-11 15:18:00,
2013-04-11 09:24:00,39.3,27.4,30.05,WNW,293,3.0,6.0,62,0.00,,,0.00,HR-IXPWINDi_r2_v1.2.,2013-04-11 15:24:00,
2013-04-11 09:29:00,39.4,27.1,30.04,WNW,285,2.0,4.0,61,0.00,,,0.00,HR-IXPWINDi_r2_v1.2.,2013-04-11 15:29:00,
2013-04-11 09:34:00,39.5,26.7,30.04,WSW,246,0.0,4.0,60,0.00,,,0.00,HR-IXPWINDi_r2_v1.2.,2013-04-11 15:34:00,
2013-04-11 09:40:00,39.8,27.0,30.04,West,278,0.0,4.0,60,0.00,,,0.00,HR-IXPWINDi_r2_v1.2.,2013-04-11 15:40:00,
2013-04-11 09:45:00,39.9,26.7,30.04,West,280,0.0,4.0,59,0.00,,,0.00,HR-IXPWINDi_r2_v1.2.,2013-04-11 15:45:00,
2013-04-11 09:50:00,40.4,27.2,30.04,SW,226,3.0,3.0,59,0.00,,,0.00,HR-IXPWINDi_r2_v1.2.,2013-04-11 15:50:00,
2013-04-11 09:55:00,40.8,26.7,30.04,WNW,287,3.0,6.0,57,0.00,,,0.00,HR-IXPWINDi_r2_v1.2.,2013-04-11 15:55:00,
2013-04-11 10:00:00,41.0,26.9,30.04,SW,235,0.0,6.0,57,0.00,,,0.00,HR-IXPWINDi_r2_v1.2.,2013-04-11 16:00:00,
2013-04-11 10:05:00,41.3,26.8,30.04,ESE,117,1.0,6.0,56,0.00,,,0.00,HR-IXPWINDi_r2_v1.2.,2013-04-11 16:05:00,
2013-04-11 10:11:00,41.6,27.5,30.04,ENE,76,1.0,3.0,57,0.00,,,0.00,HR-IXPWINDi_r2_v1.2.,2013-04-11 16:11:00,
2013-04-11 10:16:00,41.8,27.2,30.04,WNW,290,3.0,6.0,56,0.00,,,0.00,HR-IXPWINDi_r2_v1.2.,2013-04-11 16:16:00,
2013-04-11 10:22:00,41.9,27.3,30.04,West,274,2.0,6.0,56,0.00,,,0.00,HR-IXPWINDi_r2_v1.2.,2013-04-11 16:22:00,
2013-04-11 10:27:00,41.7,26.7,30.04,North,352,1.0,5.0,55,0.00,,,0.00,HR-IXPWINDi_r2_v1.2.,2013-04-11 16:27:00,
2013-04-11 10:32:00,41.9,26.9,30.04,WNW,285,1.0,4.0,55,0.00,,,0.00,HR-IXPWINDi_r2_v1.2.,2013-04-11 16:32:00,
2013-04-11 10:37:00,41.9,26.9,30.04,North,359,3.0,4.0,55,0.00,,,0.00,HR-IXPWINDi_r2_v1.2.,2013-04-11 16:37:00,
2013-04-11 10:42:00,41.9,26.9,30.05,NNE,29,2.0,5.0,55,0.00,,,0.00,HR-IXPWINDi_r2_v1.2.,2013-04-11 16:42:00,
2013-04-11 10:48:00,41.8,27.2,30.05,NE,34,1.0,6.0,56,0.00,,,0.00,HR-IXPWINDi_r2_v1.2.,2013-04-11 16:48:00,
2013-04-11 10:53:00,41.7,27.1,30.05,NE,47,3.0,6.0,56,0.00,,,0.00,HR-IXPWINDi_r2_v1.2.,2013-04-11 16:53:00,
2013-04-11 10:58:00,41.6,27.5,30.05,NE,40,4.0,6.0,57,0.00,,,0.00,HR-IXPWINDi_r2_v1.2.,2013-04-11 16:58:00,
2013-04-11 11:04:00,41.5,27.8,30.05,ENE,64,2.0,6.0,58,0.00,,,0.00,HR-IXPWINDi_r2_v1.2.,2013-04-11 17:04:00,
2013-04-11 11:09:00,41.3,28.8,30.04,WNW,300,1.0,4.0,61,0.00,,,0.00,HR-IXPWINDi_r2_v1.2.,2013-04-11 17:09:00,
2013-04-11 11:14:00,41.2,28.8,30.04,West,263,0.0,3.0,61,0.00,,,0.00,HR-IXPWINDi_r2_v1.2.,2013-04-11 17:14:00,
2013-04-11 11:20:00,41.6,29.1,30.05,ENE,58,0.0,2.0,61,0.00,,,0.00,HR-IXPWINDi_r2_v1.2.,2013-04-11 17:20:00,
2013-04-11 11:26:00,42.3,29.8,30.05,NNW,348,3.0,5.0,61,0.00,,,0.00,HR-IXPWINDi_r2_v1.2.,2013-04-11 17:26:00,
2013-04-11 11:31:00,42.1,29.6,30.04,West,261,2.0,5.0,61,0.00,,,0.00,HR-IXPWINDi_r2_v1.2.,2013-04-11 17:31:00,
2013-04-11 11:36:00,42.3,29.8,30.04,West,280,0.0,3.0,61,0.00,,,0.00,HR-IXPWINDi_r2_v1.2.,2013-04-11 17:36:00,
2013-04-11 11:42:00,42.8,29.9,30.04,NE,47,0.0,3.0,60,0.00,,,0.00,HR-IXPWINDi_r2_v1.2.,2013-04-11 17:42:00,
2013-04-11 11:47:00,43.3,29.9,30.04,SW,233,0.0,3.0,59,0.00,,,0.00,HR-IXPWINDi_r2_v1.2.,2013-04-11 17:47:00,
2013-04-11 11:52:00,43.6,29.8,30.04,ESE,121,1.0,2.0,58,0.00,,,0.00,HR-IXPWINDi_r2_v1.2.,2013-04-11 17:52:00,
2013-04-11 11:57:00,43.4,30.0,30.04,ESE,110,1.0,2.0,59,0.00,,,0.00,HR-IXPWINDi_r2_v1.2.,2013-04-11 17:57:00,
2013-04-11 12:03:00,43.9,29.6,30.03,SSE,152,1.0,2.0,57,0.00,,,0.00,HR-IXPWINDi_r2_v1.2.,2013-04-11 18:03:00,
2013-04-11 12:08:00,44.0,28.8,30.03,SE,133,2.0,4.0,55,0.00,,,0.00,HR-IXPWINDi_r2_v1.2.,2013-04-11 18:08:00,
2013-04-11 12:13:00,44.0,29.3,30.03,SE,130,2.0,4.0,56,0.00,,,0.00,HR-IXPWINDi_r2_v1.2.,2013-04-11 18:13:00,
2013-04-11 12:18:00,44.4,29.2,30.03,East,96,3.0,4.0,55,0.00,,,0.00,HR-IXPWINDi_r2_v1.2.,2013-04-11 18:18:00,
2013-04-11 12:24:00,44.4,29.2,30.02,SE,146,0.0,4.0,55,0.00,,,0.00,HR-IXPWINDi_r2_v1.2.,2013-04-11 18:24:00,
2013-04-11 12:29:00,44.4,29.2,30.02,SE,130,1.0,4.0,55,0.00,,,0.00,HR-IXPWINDi_r2_v1.2.,2013-04-11 18:29:00,
2013-04-11 12:34:00,44.5,29.3,30.02,SE,133,1.0,4.0,55,0.00,,,0.00,HR-IXPWINDi_r2_v1.2.,2013-04-11 18:34:00,
2013-04-11 12:39:00,44.5,29.3,30.01,SE,134,0.0,4.0,55,0.00,,,0.00,HR-IXPWINDi_r2_v1.2.,2013-04-11 18:39:00,
2013-04-11 12:44:00,45.1,29.9,30.01,NNW,337,2.0,5.0,55,0.00,,,0.00,HR-IXPWINDi_r2_v1.2.,2013-04-11 18:44:00,
2013-04-11 12:50:00,45.1,29.9,30.01,NNE,32,2.0,5.0,55,0.00,,,0.00,HR-IXPWINDi_r2_v1.2.,2013-04-11 18:50:00,
2013-04-11 12:55:00,45.5,29.8,30.00,NNE,18,0.0,5.0,54,0.00,,,0.00,HR-IXPWINDi_r2_v1.2.,2013-04-11 18:55:00,
2013-04-11 13:00:00,45.8,29.6,30.00,East,96,2.0,6.0,53,0.00,,,0.00,HR-IXPWINDi_r2_v1.2.,2013-04-11 19:00:00,
2013-04-11 13:05:00,46.4,30.2,30.00,East,91,2.0,6.0,53,0.00,,,0.00,HR-IXPWINDi_r2_v1.2.,2013-04-11 19:05:00,
2013-04-11 13:11:00,47.3,29.6,30.00,SE,141,1.0,4.0,50,0.00,,,0.00,HR-IXPWINDi_r2_v1.2.,2013-04-11 19:11:00,
2013-04-11 13:16:00,47.4,30.6,29.99,ENE,61,2.0,7.0,52,0.00,,,0.00,HR-IXPWINDi_r2_v1.2.,2013-04-11 19:16:00,
2013-04-11 13:21:00,47.4,30.6,29.99,NE,44,2.0,7.0,52,0.00,,,0.00,HR-IXPWINDi_r2_v1.2.,2013-04-11 19:21:00,
2013-04-11 13:26:00,48.3,31.0,29.99,South,180,1.0,7.0,51,0.00,,,0.00,HR-IXPWINDi_r2_v1.2.,2013-04-11 19:26:00,
2013-04-11 13:31:00,48.9,31.1,29.98,WNW,293,4.0,5.0,50,0.00,,,0.00,HR-IXPWINDi_r2_v1.2.,2013-04-11 19:31:00,
2013-04-11 13:37:00,49.2,31.8,29.98,NE,37,4.0,6.0,51,0.00,,,0.00,HR-IXPWINDi_r2_v1.2.,2013-04-11 19:37:00,
2013-04-11 13:42:00,49.4,31.5,29.98,North,4,1.0,6.0,50,0.00,,,0.00,HR-IXPWINDi_r2_v1.2.,2013-04-11 19:42:00,
2013-04-11 13:47:00,50.6,31.6,29.98,East,100,2.0,6.0,48,0.00,,,0.00,HR-IXPWINDi_r2_v1.2.,2013-04-11 19:47:00,
2013-04-11 13:52:00,50.7,31.7,29.97,East,82,5.0,7.0,48,0.00,,,0.00,HR-IXPWINDi_r2_v1.2.,2013-04-11 19:52:00,
2013-04-11 13:57:00,50.2,31.7,29.97,ENE,61,1.0,7.0,49,0.00,,,0.00,HR-IXPWINDi_r2_v1.2.,2013-04-11 19:57:00,
2013-04-11 14:03:00,51.0,31.5,29.96,ESE,103,1.0,6.0,47,0.00,,,0.00,HR-IXPWINDi_r2_v1.2.,2013-04-11 20:03:00,
2013-04-11 14:08:00,51.7,32.1,29.96,SSW,205,0.0,4.0,47,0.00,,,0.00,HR-IXPWINDi_r2_v1.2.,2013-04-11 20:08:00,
2013-04-11 14:13:00,53.2,31.8,29.96,SSE,152,2.0,4.0,44,0.00,,,0.00,HR-IXPWINDi_r2_v1.2.,2013-04-11 20:13:00,
2013-04-11 14:18:00,53.8,32.4,29.96,East,89,3.0,5.0,44,0.00,,,0.00,HR-IXPWINDi_r2_v1.2.,2013-04-11 20:18:00,
2013-04-11 14:23:00,54.0,32.0,29.96,ESE,105,3.0,5.0,43,0.00,,,0.00,HR-IXPWINDi_r2_v1.2.,2013-04-11 20:23:00,
2013-04-11 14:29:00,53.5,32.1,29.96,SSW,200,3.0,6.0,44,0.00,,,0.00,HR-IXPWINDi_r2_v1.2.,2013-04-11 20:29:00,
2013-04-11 14:34:00,54.0,32.0,29.96,SW,218,5.0,6.0,43,0.00,,,0.00,HR-IXPWINDi_r2_v1.2.,2013-04-11 20:34:00,
2013-04-11 14:39:00,53.8,31.8,29.95,SW,235,2.0,6.0,43,0.00,,,0.00,HR-IXPWINDi_r2_v1.2.,2013-04-11 20:39:00,
2013-04-11 14:44:00,54.0,32.0,29.95,NE,49,2.0,6.0,43,0.00,,,0.00,HR-IXPWINDi_r2_v1.2.,2013-04-11 20:44:00,
2013-04-11 14:49:00,53.9,31.9,29.95,East,81,3.0,5.0,43,0.00,,,0.00,HR-IXPWINDi_r2_v1.2.,2013-04-11 20:49:00,
2013-04-11 14:54:00,53.0,31.6,29.95,East,99,4.0,5.0,44,0.00,,,0.00,HR-IXPWINDi_r2_v1.2.,2013-04-11 20:54:00,
2013-04-11 14:59:00,52.7,31.9,29.94,SE,134,2.0,5.0,45,0.00,,,0.00,HR-IXPWINDi_r2_v1.2.,2013-04-11 20:59:00,
2013-04-11 15:04:00,53.4,32.6,29.93,NNE,19,3.0,7.0,45,0.00,,,0.00,HR-IXPWINDi_r2_v1.2.,2013-04-11 21:04:00,
2013-04-11 15:10:00,53.7,32.8,29.93,ENE,63,4.0,7.0,45,0.00,,,0.00,HR-IXPWINDi_r2_v1.2.,2013-04-11 21:10:00,
2013-04-11 15:15:00,53.6,32.2,29.93,ENE,60,4.0,8.0,44,0.00,,,0.00,HR-IXPWINDi_r2_v1.2.,2013-04-11 21:15:00,
2013-04-11 15:20:00,54.0,32.0,29.92,West,259,4.0,8.0,43,0.00,,,0.00,HR-IXPWINDi_r2_v1.2.,2013-04-11 21:20:00,
2013-04-11 15:25:00,54.9,31.6,29.92,SSE,155,2.0,6.0,41,0.00,,,0.00,HR-IXPWINDi_r2_v1.2.,2013-04-11 21:25:00,
2013-04-11 15:30:00,55.6,31.6,29.92,SSE,150,1.0,8.0,40,0.00,,,0.00,HR-IXPWINDi_r2_v1.2.,2013-04-11 21:30:00,
2013-04-11 15:36:00,55.8,31.8,29.92,ESE,115,2.0,8.0,40,0.00,,,0.00,HR-IXPWINDi_r2_v1.2.,2013-04-11 21:36:00,
2013-04-11 15:41:00,55.8,31.8,29.91,SE,136,3.0,8.0,40,0.00,,,0.00,HR-IXPWINDi_r2_v1.2.,2013-04-11 21:41:00,
2013-04-11 15:46:00,55.2,31.9,29.91,NNE,33,3.0,8.0,41,0.00,,,0.00,HR-IXPWINDi_r2_v1.2.,2013-04-11 21:46:00,
2013-04-11 15:51:00,55.8,32.4,29.90,SW,226,4.0,6.0,41,0.00,,,0.00,HR-IXPWINDi_r2_v1.2.,2013-04-11 21:51:00,
2013-04-11 15:57:00,56.1,32.7,29.90,West,267,1.0,5.0,41,0.00,,,0.00,HR-IXPWINDi_r2_v1.2.,2013-04-11 21:57:00,
2013-04-11 16:02:00,56.4,33.0,29.89,ESE,107,1.0,5.0,41,0.00,,,0.00,HR-IXPWINDi_r2_v1.2.,2013-04-11 22:02:00,
2013-04-11 16:07:00,56.4,32.4,29.89,NW,304,3.0,9.0,40,0.00,,,0.00,HR-IXPWINDi_r2_v1.2.,2013-04-11 22:07:00,
2013-04-11 16:12:00,56.2,32.2,29.89,WSW,255,4.0,9.0,40,0.00,,,0.00,HR-IXPWINDi_r2_v1.2.,2013-04-11 22:12:00,
2013-04-11 16:17:00,56.2,32.2,29.89,NW,305,6.0,9.0,40,0.00,,,0.00,HR-IXPWINDi_r2_v1.2.,2013-04-11 22:17:00,
2013-04-11 16:22:00,56.1,32.1,29.88,WNW,285,1.0,6.0,40,0.00,,,0.00,HR-IXPWINDi_r2_v1.2.,2013-04-11 22:22:00,
2013-04-11 16:28:00,56.5,32.4,29.88,WNW,288,7.0,8.0,40,0.00,,,0.00,HR-IXPWINDi_r2_v1.2.,2013-04-11 22:28:00,
2013-04-11 16:33:00,55.9,32.5,29.88,North,8,2.0,8.0,41,0.00,,,0.00,HR-IXPWINDi_r2_v1.2.,2013-04-11 22:33:00,
2013-04-11 16:38:00,56.5,32.4,29.88,WSW,250,2.0,7.0,40,0.00,,,0.00,HR-IXPWINDi_r2_v1.2.,2013-04-11 22:38:00,
2013-04-11 16:44:00,57.2,32.4,29.88,West,278,3.0,8.0,39,0.00,,,0.00,HR-IXPWINDi_r2_v1.2.,2013-04-11 22:44:00,
2013-04-11 16:49:00,57.4,33.2,29.87,WNW,285,1.0,8.0,40,0.00,,,0.00,HR-IXPWINDi_r2_v1.2.,2013-04-11 22:49:00,
2013-04-11 16:54:00,57.2,33.1,29.87,NNE,16,2.0,8.0,40,0.00,,,0.00,HR-IXPWINDi_r2_v1.2.,2013-04-11 22:54:00,
2013-04-11 16:59:00,57.2,33.1,29.87,WNW,290,7.0,8.0,40,0.00,,,0.00,HR-IXPWINDi_r2_v1.2.,2013-04-11 22:59:00,
2013-04-11 17:04:00,56.8,33.3,29.87,NNE,29,2.0,7.0,41,0.00,,,0.00,HR-IXPWINDi_r2_v1.2.,2013-04-11 23:04:00,
2013-04-11 17:09:00,57.1,33.6,29.86,WNW,302,2.0,7.0,41,0.00,,,0.00,HR-IXPWINDi_r2_v1.2.,2013-04-11 23:09:00,
2013-04-11 17:14:00,57.2,33.7,29.86,West,259,2.0,9.0,41,0.00,,,0.00,HR-IXPWINDi_r2_v1.2.,2013-04-11 23:14:00,
2013-04-11 17:20:00,57.2,33.7,29.86,WNW,293,5.0,11.0,41,0.00,,,0.00,HR-IXPWINDi_r2_v1.2.,2013-04-11 23:20:00,
2013-04-11 17:25:00,57.2,33.7,29.86,WNW,290,1.0,11.0,41,0.00,,,0.00,HR-IXPWINDi_r2_v1.2.,2013-04-11 23:25:00,
2013-04-11 17:30:00,57.0,34.1,29.86,NE,37,3.0,8.0,42,0.00,,,0.00,HR-IXPWINDi_r2_v1.2.,2013-04-11 23:30:00,
2013-04-11 17:35:00,57.5,34.0,29.86,West,271,7.0,9.0,41,0.00,,,0.00,HR-IXPWINDi_r2_v1.2.,2013-04-11 23:35:00,
2013-04-11 17:40:00,57.4,33.9,29.86,WSW,257,5.0,9.0,41,0.00,,,0.00,HR-IXPWINDi_r2_v1.2.,2013-04-11 23:40:00,
2013-04-11 17:45:00,57.2,34.3,29.86,NNW,343,1.0,9.0,42,0.00,,,0.00,HR-IXPWINDi_r2_v1.2.,2013-04-11 23:45:00,
2013-04-11 17:51:00,57.5,34.6,29.85,NNW,335,5.0,7.0,42,0.00,,,0.00,HR-IXPWINDi_r2_v1.2.,2013-04-11 23:51:00,
2013-04-11 17:56:00,57.5,34.6,29.85,NNW,340,3.0,7.0,42,0.00,,,0.00,HR-IXPWINDi_r2_v1.2.,2013-04-11 23:56:00,
2013-04-11 18:01:00,57.6,34.6,29.85,WNW,288,3.0,7.0,42,0.00,,,0.00,HR-IXPWINDi_r2_v1.2.,2013-04-12 00:01:00,
2013-04-11 18:06:00,58.0,34.4,29.85,North,4,5.0,7.0,41,0.00,,,0.00,HR-IXPWINDi_r2_v1.2.,2013-04-12 00:06:00,
2013-04-11 18:11:00,58.4,34.8,29.85,WNW,302,3.0,6.0,41,0.00,,,0.00,HR-IXPWINDi_r2_v1.2.,2013-04-12 00:11:00,
2013-04-11 18:16:00,58.1,34.5,29.85,NW,325,2.0,7.0,41,0.00,,,0.00,HR-IXPWINDi_r2_v1.2.,2013-04-12 00:16:00,
2013-04-11 18:21:00,58.2,34.6,29.85,NW,312,2.0,7.0,41,0.00,,,0.00,HR-IXPWINDi_r2_v1.2.,2013-04-12 00:21:00,
2013-04-11 18:27:00,58.0,34.4,29.85,NW,316,4.0,8.0,41,0.00,,,0.00,HR-IXPWINDi_r2_v1.2.,2013-04-12 00:27:00,
2013-04-11 18:32:00,57.8,34.8,29.85,WNW,298,1.0,8.0,42,0.00,,,0.00,HR-IXPWINDi_r2_v1.2.,2013-04-12 00:32:00,
2013-04-11 18:37:00,57.9,34.3,29.85,NNE,23,5.0,6.0,41,0.00,,,0.00,HR-IXPWINDi_r2_v1.2.,2013-04-12 00:37:00,
2013-04-11 18:42:00,57.7,34.7,29.85,NNE,26,4.0,6.0,42,0.00,,,0.00,HR-IXPWINDi_r2_v1.2.,2013-04-12 00:42:00,
2013-04-11 18:47:00,57.6,34.6,29.84,NW,308,3.0,6.0,42,0.00,,,0.00,HR-IXPWINDi_r2_v1.2.,2013-04-12 00:47:00,
2013-04-11 18:52:00,57.8,34.8,29.84,North,9,3.0,6.0,42,0.00,,,0.00,HR-IXPWINDi_r2_v1.2.,2013-04-12 00:52:00,
2013-04-11 18:57:00,57.9,34.9,29.84,NW,314,5.0,5.0,42,0.00,,,0.00,HR-IXPWINDi_r2_v1.2.,2013-04-12 00:57:00,
2013-04-11 19:02:00,57.6,34.6,29.84,NNE,23,3.0,6.0,42,0.00,,,0.00,HR-IXPWINDi_r2_v1.2.,2013-04-12 01:02:00,
2013-04-11 19:08:00,57.7,34.7,29.84,WNW,293,3.0,6.0,42,0.00,,,0.00,HR-IXPWINDi_r2_v1.2.,2013-04-12 01:08:00,
2013-04-11 19:13:00,57.5,35.1,29.84,NNE,15,1.0,5.0,43,0.00,,,0.00,HR-IXPWINDi_r2_v1.2.,2013-04-12 01:13:00,
2013-04-11 19:18:00,57.4,35.1,29.84,NNE,20,3.0,4.0,43,0.00,,,0.00,HR-IXPWINDi_r2_v1.2.,2013-04-12 01:18:00,
2013-04-11 19:23:00,57.1,35.4,29.84,NW,321,2.0,5.0,44,0.00,,,0.00,HR-IXPWINDi_r2_v1.2.,2013-04-12 01:23:00,
2013-04-11 19:28:00,56.6,36.0,29.84,NW,304,2.0,5.0,46,0.00,,,0.00,HR-IXPWINDi_r2_v1.2.,2013-04-12 01:28:00,
2013-04-11 19:33:00,55.9,35.9,29.84,NNW,337,1.0,4.0,47,0.00,,,0.00,HR-IXPWINDi_r2_v1.2.,2013-04-12 01:33:00,
2013-04-11 19:38:00,55.4,36.0,29.84,North,5,1.0,4.0,48,0.00,,,0.00,HR-IXPWINDi_r2_v1.2.,2013-04-12 01:38:00,
2013-04-11 19:43:00,55.0,35.6,29.84,North,356,2.0,4.0,48,0.00,,,0.00,HR-IXPWINDi_r2_v1.2.,2013-04-12 01:43:00,
2013-04-11 19:49:00,54.5,35.7,29.84,North,359,1.0,3.0,49,0.00,,,0.00,HR-IXPWINDi_r2_v1.2.,2013-04-12 01:49:00,
2013-04-11 19:54:00,54.2,35.9,29.84,NNE,19,0.0,2.0,50,0.00,,,0.00,HR-IXPWINDi_r2_v1.2.,2013-04-12 01:54:00,
2013-04-11 19:59:00,53.9,35.7,29.84,NNE,19,1.0,2.0,50,0.00,,,0.00,HR-IXPWINDi_r2_v1.2.,2013-04-12 01:59:00,
2013-04-11 20:04:00,53.6,35.9,29.84,NNE,19,1.0,2.0,51,0.00,,,0.00,HR-IXPWINDi_r2_v1.2.,2013-04-12 02:04:00,
2013-04-11 20:09:00,53.3,36.1,29.85,NNE,19,0.0,1.0,52,0.00,,,0.00,HR-IXPWINDi_r2_v1.2.,2013-04-12 02:09:00,
2013-04-11 20:14:00,53.0,35.8,29.84,NNE,19,0.0,1.0,52,0.00,,,0.00,HR-IXPWINDi_r2_v1.2.,2013-04-12 02:14:00,
2013-04-11 20:19:00,52.6,35.9,29.84,NNE,19,0.0,1.0,53,0.00,,,0.00,HR-IXPWINDi_r2_v1.2.,2013-04-12 02:19:00,
2013-04-11 20:25:00,52.4,35.7,29.85,NNE,19,0.0,1.0,53,0.00,,,0.00,HR-IXPWINDi_r2_v1.2.,2013-04-12 02:25:00,
2013-04-11 20:30:00,52.1,35.9,29.85,NNE,18,0.0,1.0,54,0.00,,,0.00,HR-IXPWINDi_r2_v1.2.,2013-04-12 02:30:00,
2013-04-11 20:35:00,51.8,35.6,29.85,NNE,19,0.0,0.0,54,0.00,,,0.00,HR-IXPWINDi_r2_v1.2.,2013-04-12 02:35:00,
2013-04-11 20:40:00,51.6,35.5,29.85,NNE,19,0.0,1.0,54,0.00,,,0.00,HR-IXPWINDi_r2_v1.2.,2013-04-12 02:40:00,
2013-04-11 20:46:00,51.5,35.4,29.85,NNE,18,0.0,1.0,54,0.00,,,0.00,HR-IXPWINDi_r2_v1.2.,2013-04-12 02:46:00,
2013-04-11 20:51:00,51.4,35.3,29.85,NNE,19,0.0,0.0,54,0.00,,,0.00,HR-IXPWINDi_r2_v1.2.,2013-04-12 02:51:00,
2013-04-11 20:56:00,51.2,35.1,29.85,NNE,19,0.0,0.0,54,0.00,,,0.00,HR-IXPWINDi_r2_v1.2.,2013-04-12 02:56:00,
2013-04-11 21:01:00,50.9,35.3,29.86,NNE,19,0.0,1.0,55,0.00,,,0.00,HR-IXPWINDi_r2_v1.2.,2013-04-12 03:01:00,
2013-04-11 21:06:00,50.8,35.6,29.86,NNE,19,0.0,1.0,56,0.00,,,0.00,HR-IXPWINDi_r2_v1.2.,2013-04-12 03:06:00,
2013-04-11 21:11:00,50.4,35.3,29.86,NNE,19,0.0,1.0,56,0.00,,,0.00,HR-IXPWINDi_r2_v1.2.,2013-04-12 03:11:00,
2013-04-11 21:16:00,49.9,35.2,29.86,NNE,19,0.0,0.0,57,0.00,,,0.00,HR-IXPWINDi_r2_v1.2.,2013-04-12 03:16:00,
2013-04-11 21:22:00,49.4,35.2,29.86,NNE,19,0.0,0.0,58,0.00,,,0.00,HR-IXPWINDi_r2_v1.2.,2013-04-12 03:22:00,
2013-04-11 21:27:00,49.2,35.4,29.87,NNE,19,1.0,1.0,59,0.00,,,0.00,HR-IXPWINDi_r2_v1.2.,2013-04-12 03:27:00,
2013-04-11 21:32:00,49.1,35.4,29.87,NNE,19,1.0,1.0,59,0.00,,,0.00,HR-IXPWINDi_r2_v1.2.,2013-04-12 03:32:00,
2013-04-11 21:37:00,48.8,35.1,29.87,NNE,19,0.0,1.0,59,0.00,,,0.00,HR-IXPWINDi_r2_v1.2.,2013-04-12 03:37:00,
2013-04-11 21:43:00,48.3,34.6,29.87,NNE,33,1.0,1.0,59,0.00,,,0.00,HR-IXPWINDi_r2_v1.2.,2013-04-12 03:43:00,
2013-04-11 21:48:00,47.9,34.6,29.87,NE,40,1.0,1.0,60,0.00,,,0.00,HR-IXPWINDi_r2_v1.2.,2013-04-12 03:48:00,
2013-04-11 21:53:00,47.6,34.4,29.87,NE,41,1.0,2.0,60,0.00,,,0.00,HR-IXPWINDi_r2_v1.2.,2013-04-12 03:53:00,
2013-04-11 21:58:00,47.3,34.1,29.87,NE,40,0.0,2.0,60,0.00,,,0.00,HR-IXPWINDi_r2_v1.2.,2013-04-12 03:58:00,
2013-04-11 22:00:00,47.3,34.1,29.87,NE,41,0.0,2.0,60,0.00,,,0.00,HR-IXPWINDi_r2_v1.2.,2013-04-12 04:00:00,
2013-04-11 22:05:00,46.9,34.1,29.87,NE,40,0.0,1.0,61,0.00,,,0.00,HR-IXPWINDi_r2_v1.2.,2013-04-12 04:05:00,
2013-04-11 22:10:00,46.5,33.7,29.87,NE,40,1.0,1.0,61,0.00,,,0.00,HR-IXPWINDi_r2_v1.2.,2013-04-12 04:10:00,
2013-04-11 22:15:00,46.2,33.5,29.87,NE,40,0.0,1.0,61,0.00,,,0.00,HR-IXPWINDi_r2_v1.2.,2013-04-12 04:15:00,
2013-04-11 22:20:00,45.9,33.6,29.87,NE,40,0.0,1.0,62,0.00,,,0.00,HR-IXPWINDi_r2_v1.2.,2013-04-12 04:20:00,
2013-04-11 22:25:00,45.8,33.5,29.87,NE,40,0.0,1.0,62,0.00,,,0.00,HR-IXPWINDi_r2_v1.2.,2013-04-12 04:25:00,
2013-04-11 22:30:00,45.8,33.1,29.87,NE,40,1.0,1.0,61,0.00,,,0.00,HR-IXPWINDi_r2_v1.2.,2013-04-12 04:30:00,
2013-04-11 22:36:00,45.7,32.6,29.88,NE,40,1.0,1.0,60,0.00,,,0.00,HR-IXPWINDi_r2_v1.2.,2013-04-12 04:36:00,
2013-04-11 22:41:00,45.5,32.4,29.88,NE,40,1.0,1.0,60,0.00,,,0.00,HR-IXPWINDi_r2_v1.2.,2013-04-12 04:41:00,
2013-04-11 22:46:00,45.4,32.3,29.88,ENE,57,2.0,2.0,60,0.00,,,0.00,HR-IXPWINDi_r2_v1.2.,2013-04-12 04:46:00,
2013-04-11 22:51:00,45.4,32.7,29.88,ENE,70,0.0,2.0,61,0.00,,,0.00,HR-IXPWINDi_r2_v1.2.,2013-04-12 04:51:00,
2013-04-11 22:56:00,45.4,32.7,29.88,ENE,70,0.0,2.0,61,0.00,,,0.00,HR-IXPWINDi_r2_v1.2.,2013-04-12 04:56:00,
2013-04-11 23:01:00,45.4,32.7,29.88,ENE,70,0.0,1.0,61,0.00,,,0.00,HR-IXPWINDi_r2_v1.2.,2013-04-12 05:01:00,
2013-04-11 23:07:00,45.2,32.5,29.88,ENE,70,0.0,0.0,61,0.00,,,0.00,HR-IXPWINDi_r2_v1.2.,2013-04-12 05:07:00,
2013-04-11 23:12:00,45.2,32.5,29.89,ENE,69,0.0,0.0,61,0.00,,,0.00,HR-IXPWINDi_r2_v1.2.,2013-04-12 05:12:00,
2013-04-11 23:17:00,45.2,32.5,29.89,ENE,70,0.0,0.0,61,0.00,,,0.00,HR-IXPWINDi_r2_v1.2.,2013-04-12 05:17:00,
2013-04-11 23:22:00,45.3,32.6,29.89,ENE,70,0.0,0.0,61,0.00,,,0.00,HR-IXPWINDi_r2_v1.2.,2013-04-12 05:22:00,
2013-04-11 23:28:00,45.3,32.2,29.88,ENE,70,0.0,1.0,60,0.00,,,0.00,HR-IXPWINDi_r2_v1.2.,2013-04-12 05:28:00,
2013-04-11 23:33:00,45.2,32.5,29.88,ENE,70,0.0,1.0,61,0.00,,,0.00,HR-IXPWINDi_r2_v1.2.,2013-04-12 05:33:00,
2013-04-11 23:38:00,45.0,32.3,29.89,ENE,70,0.0,1.0,61,0.00,,,0.00,HR-IXPWINDi_r2_v1.2.,2013-04-12 05:38:00,
2013-04-11 23:43:00,44.8,32.5,29.89,ENE,68,0.0,1.0,62,0.00,,,0.00,HR-IXPWINDi_r2_v1.2.,2013-04-12 05:43:00,
2013-04-11 23:48:00,44.7,32.5,29.89,ENE,70,0.0,1.0,62,0.00,,,0.00,HR-IXPWINDi_r2_v1.2.,2013-04-12 05:48:00,
2013-04-11 23:53:00,44.5,32.3,29.89,ENE,68,0.0,0.0,62,0.00,,,0.00,HR-IXPWINDi_r2_v1.2.,2013-04-12 05:53:00,
2013-04-11 23:58:00,44.5,32.3,29.89,ENE,70,0.0,0.0,62,0.00,,,0.00,HR-IXPWINDi_r2_v1.2.,2013-04-12 05:58:00,